contact:dominique.lefevre@mio.osupytheas.fr, maurice.libes@osupytheas.fr, didier.mallarino@osupytheas.fr
Project:EMSO http://www.emso-fr.org/EMSO-France
Depth: 2436.0 m
Title:EMSO Ligure Ouest : Data MII capteur MICROCAT
DateTime_Computer,Latitude,Longitude,Temperature,Conductivity,Pressure,DateTime_Instrument
DateTime_Computer,Latitude,Longitude,degC,S m-1,dbar,DateTime_Instrument
2023-11-05T00:00:53Z,42.805,6.029,13.3029,4.60097,2470.763,2023-11-05T02:03:19Z
2023-11-05T00:03:56Z,42.805,6.029,13.3030,4.60099,2470.787,2023-11-05T02:06:23Z
2023-11-05T00:06:59Z,42.805,6.029,13.3033,4.60099,2470.8,2023-11-05T02:09:26Z
2023-11-05T00:10:02Z,42.805,6.029,13.3027,4.60096,2470.81,2023-11-05T02:12:29Z
2023-11-05T00:13:05Z,42.805,6.029,13.3026,4.60097,2470.8,2023-11-05T02:15:32Z
2023-11-05T00:16:09Z,42.805,6.029,13.3029,4.60097,2470.787,2023-11-05T02:18:35Z
2023-11-05T00:19:12Z,42.805,6.029,13.3027,4.60097,2470.787,2023-11-05T02:21:38Z
2023-11-05T00:22:15Z,42.805,6.029,13.3030,4.60097,2470.773,2023-11-05T02:24:41Z
2023-11-05T00:25:18Z,42.805,6.029,13.3025,4.60098,2470.787,2023-11-05T02:27:44Z
2023-11-05T00:28:21Z,42.805,6.029,13.3024,4.60099,2470.787,2023-11-05T02:30:47Z
2023-11-05T00:31:24Z,42.805,6.029,13.3029,4.60096,2470.763,2023-11-05T02:33:50Z
2023-11-05T00:34:27Z,42.805,6.029,13.3029,4.60096,2470.787,2023-11-05T02:36:53Z
2023-11-05T00:37:30Z,42.805,6.029,13.3029,4.60094,2470.8,2023-11-05T02:39:56Z
2023-11-05T00:40:33Z,42.805,6.029,13.3029,4.60098,2470.787,2023-11-05T02:42:59Z
2023-11-05T00:43:36Z,42.805,6.029,13.3024,4.60094,2470.777,2023-11-05T02:46:03Z
2023-11-05T00:46:39Z,42.805,6.029,13.3026,4.60102,2470.763,2023-11-05T02:49:06Z
2023-11-05T00:49:42Z,42.805,6.029,13.3031,4.60094,2470.763,2023-11-05T02:52:09Z
2023-11-05T00:52:45Z,42.805,6.029,13.3031,4.60095,2470.787,2023-11-05T02:55:12Z
2023-11-05T00:55:49Z,42.805,6.029,13.3027,4.60095,2470.81,2023-11-05T02:58:15Z
2023-11-05T00:58:52Z,42.805,6.029,13.3027,4.60095,2470.763,2023-11-05T03:01:18Z
2023-11-05T01:01:55Z,42.805,6.029,13.3028,4.60097,2470.787,2023-11-05T03:04:21Z
2023-11-05T01:04:58Z,42.805,6.029,13.3027,4.60094,2470.74,2023-11-05T03:07:24Z
2023-11-05T01:08:01Z,42.805,6.029,13.3026,4.60095,2470.763,2023-11-05T03:10:27Z
2023-11-05T01:11:04Z,42.805,6.029,13.3024,4.60094,2470.754,2023-11-05T03:13:30Z
2023-11-05T01:14:07Z,42.805,6.029,13.3028,4.60095,2470.763,2023-11-05T03:16:33Z
2023-11-05T01:17:10Z,42.805,6.029,13.3030,4.60098,2470.787,2023-11-05T03:19:36Z
2023-11-05T01:20:13Z,42.805,6.029,13.3026,4.60096,2470.787,2023-11-05T03:22:39Z
2023-11-05T01:23:16Z,42.805,6.029,13.3025,4.60095,2470.787,2023-11-05T03:25:43Z
2023-11-05T01:26:19Z,42.805,6.029,13.3029,4.60096,2470.74,2023-11-05T03:28:46Z
2023-11-05T01:29:22Z,42.805,6.029,13.3033,4.60095,2470.8,2023-11-05T03:31:49Z
2023-11-05T01:32:26Z,42.805,6.029,13.3026,4.60097,2470.81,2023-11-05T03:34:52Z
2023-11-05T01:35:29Z,42.805,6.029,13.3031,4.60095,2470.787,2023-11-05T03:37:55Z
2023-11-05T01:38:32Z,42.805,6.029,13.3025,4.60095,2470.773,2023-11-05T03:40:58Z
2023-11-05T01:41:35Z,42.805,6.029,13.3028,4.60095,2470.787,2023-11-05T03:44:01Z
2023-11-05T01:44:38Z,42.805,6.029,13.3026,4.60096,2470.763,2023-11-05T03:47:04Z
2023-11-05T01:47:41Z,42.805,6.029,13.3028,4.60097,2470.787,2023-11-05T03:50:07Z
2023-11-05T01:50:44Z,42.805,6.029,13.3026,4.60095,2470.8,2023-11-05T03:53:10Z
2023-11-05T01:53:47Z,42.805,6.029,13.3029,4.60096,2470.763,2023-11-05T03:56:13Z
2023-11-05T01:56:50Z,42.805,6.029,13.3029,4.60097,2470.787,2023-11-05T03:59:16Z
2023-11-05T01:59:53Z,42.805,6.029,13.3026,4.60097,2470.787,2023-11-05T04:02:20Z
2023-11-05T02:02:56Z,42.805,6.029,13.3029,4.60095,2470.787,2023-11-05T04:05:23Z
2023-11-05T02:05:59Z,42.805,6.029,13.3028,4.60096,2470.777,2023-11-05T04:08:26Z
2023-11-05T02:09:02Z,42.805,6.029,13.3031,4.60096,2470.787,2023-11-05T04:11:29Z
2023-11-05T02:12:05Z,42.805,6.029,13.3031,4.60096,2470.787,2023-11-05T04:14:32Z
2023-11-05T02:15:09Z,42.805,6.029,13.3030,4.60098,2470.824,2023-11-05T04:17:35Z
2023-11-05T02:18:12Z,42.805,6.029,13.3030,4.60097,2470.787,2023-11-05T04:20:38Z
2023-11-05T02:21:15Z,42.805,6.029,13.3026,4.60097,2470.787,2023-11-05T04:23:41Z
2023-11-05T02:24:18Z,42.805,6.029,13.3031,4.60095,2470.81,2023-11-05T04:26:44Z
2023-11-05T02:27:21Z,42.805,6.029,13.3028,4.60094,2470.8,2023-11-05T04:29:47Z
2023-11-05T02:30:24Z,42.805,6.029,13.3026,4.60094,2470.787,2023-11-05T04:32:50Z
2023-11-05T02:33:27Z,42.805,6.029,13.3028,4.60095,2470.8,2023-11-05T04:35:53Z
2023-11-05T02:36:30Z,42.805,6.029,13.3028,4.60094,2470.787,2023-11-05T04:38:56Z
2023-11-05T02:39:33Z,42.805,6.029,13.3029,4.60096,2470.773,2023-11-05T04:42:00Z
2023-11-05T02:42:36Z,42.805,6.029,13.3028,4.60094,2470.8,2023-11-05T04:45:03Z
2023-11-05T02:45:39Z,42.805,6.029,13.3026,4.60095,2470.81,2023-11-05T04:48:06Z
2023-11-05T02:48:42Z,42.805,6.029,13.3030,4.60094,2470.8,2023-11-05T04:51:09Z
2023-11-05T02:51:46Z,42.805,6.029,13.3029,4.60096,2470.787,2023-11-05T04:54:12Z
2023-11-05T02:54:49Z,42.805,6.029,13.3029,4.60097,2470.763,2023-11-05T04:57:15Z
2023-11-05T02:57:52Z,42.805,6.029,13.3027,4.60094,2470.8,2023-11-05T05:00:18Z
2023-11-05T03:00:55Z,42.805,6.029,13.3026,4.60093,2470.777,2023-11-05T05:03:21Z
2023-11-05T03:03:58Z,42.805,6.029,13.3026,4.60094,2470.787,2023-11-05T05:06:24Z
2023-11-05T03:07:01Z,42.805,6.029,13.3026,4.60093,2470.81,2023-11-05T05:09:27Z
2023-11-05T03:10:04Z,42.805,6.029,13.3026,4.60099,2470.777,2023-11-05T05:12:30Z
2023-11-05T03:13:07Z,42.805,6.029,13.3028,4.60094,2470.777,2023-11-05T05:15:33Z
2023-11-05T03:16:10Z,42.805,6.029,13.3030,4.60095,2470.763,2023-11-05T05:18:36Z
2023-11-05T03:19:13Z,42.805,6.029,13.3029,4.60093,2470.763,2023-11-05T05:21:40Z
2023-11-05T03:22:16Z,42.805,6.029,13.3026,4.60093,2470.787,2023-11-05T05:24:43Z
2023-11-05T03:25:19Z,42.805,6.029,13.3026,4.60094,2470.787,2023-11-05T05:27:46Z
2023-11-05T03:28:22Z,42.805,6.029,13.3026,4.60093,2470.787,2023-11-05T05:30:49Z
2023-11-05T03:31:26Z,42.805,6.029,13.3024,4.60093,2470.787,2023-11-05T05:33:52Z
2023-11-05T03:34:29Z,42.805,6.029,13.3030,4.60093,2470.787,2023-11-05T05:36:55Z
2023-11-05T03:37:32Z,42.805,6.029,13.3026,4.60092,2470.763,2023-11-05T05:39:58Z
2023-11-05T03:40:35Z,42.805,6.029,13.3028,4.60093,2470.787,2023-11-05T05:43:01Z
2023-11-05T03:43:38Z,42.805,6.029,13.3026,4.60093,2470.763,2023-11-05T05:46:04Z
2023-11-05T03:46:41Z,42.805,6.029,13.3027,4.60095,2470.787,2023-11-05T05:49:07Z
2023-11-05T03:49:44Z,42.805,6.029,13.3026,4.60096,2470.763,2023-11-05T05:52:10Z
2023-11-05T03:52:47Z,42.805,6.029,13.3029,4.60095,2470.763,2023-11-05T05:55:13Z
2023-11-05T03:55:50Z,42.805,6.029,13.3024,4.60095,2470.787,2023-11-05T05:58:16Z
2023-11-05T03:58:53Z,42.805,6.029,13.3026,4.60095,2470.777,2023-11-05T06:01:20Z
2023-11-05T04:01:56Z,42.805,6.029,13.3023,4.60094,2470.8,2023-11-05T06:04:23Z
2023-11-05T04:04:59Z,42.805,6.029,13.3029,4.60094,2470.824,2023-11-05T06:07:26Z
2023-11-05T04:08:02Z,42.805,6.029,13.3026,4.60096,2470.787,2023-11-05T06:10:29Z
2023-11-05T04:11:06Z,42.805,6.029,13.3030,4.60095,2470.8,2023-11-05T06:13:32Z
2023-11-05T04:14:09Z,42.805,6.029,13.3028,4.60096,2470.787,2023-11-05T06:16:35Z
2023-11-05T04:17:12Z,42.805,6.029,13.3032,4.60097,2470.777,2023-11-05T06:19:38Z
2023-11-05T04:20:15Z,42.805,6.029,13.3033,4.60097,2470.763,2023-11-05T06:22:41Z
2023-11-05T04:23:18Z,42.805,6.029,13.3028,4.60095,2470.787,2023-11-05T06:25:44Z
2023-11-05T04:26:21Z,42.805,6.029,13.3029,4.60104,2470.787,2023-11-05T06:28:47Z
2023-11-05T04:29:24Z,42.805,6.029,13.3029,4.60095,2470.8,2023-11-05T06:31:50Z
2023-11-05T04:32:27Z,42.805,6.029,13.3031,4.60094,2470.787,2023-11-05T06:34:53Z
2023-11-05T04:35:30Z,42.805,6.029,13.3031,4.60094,2470.777,2023-11-05T06:37:56Z
2023-11-05T04:38:33Z,42.805,6.029,13.3036,4.60096,2470.787,2023-11-05T06:41:00Z
2023-11-05T04:41:36Z,42.805,6.029,13.3034,4.60094,2470.777,2023-11-05T06:44:03Z
2023-11-05T04:44:39Z,42.805,6.029,13.3032,4.60103,2470.777,2023-11-05T06:47:06Z
2023-11-05T04:47:42Z,42.805,6.029,13.3041,4.60097,2470.824,2023-11-05T06:50:09Z
2023-11-05T04:50:46Z,42.805,6.029,13.3041,4.60122,2470.787,2023-11-05T06:53:12Z
2023-11-05T04:53:49Z,42.805,6.029,13.3035,4.60098,2470.777,2023-11-05T06:56:15Z
2023-11-05T04:56:52Z,42.805,6.029,13.3029,4.60098,2470.787,2023-11-05T06:59:18Z
2023-11-05T04:59:55Z,42.805,6.029,13.3036,4.60110,2470.787,2023-11-05T07:02:21Z
2023-11-05T05:02:58Z,42.805,6.029,13.3041,4.60109,2470.763,2023-11-05T07:05:24Z
2023-11-05T05:06:01Z,42.805,6.029,13.3036,4.60098,2470.777,2023-11-05T07:08:27Z
2023-11-05T05:09:04Z,42.805,6.029,13.3027,4.60102,2470.8,2023-11-05T07:11:30Z
2023-11-05T05:12:07Z,42.805,6.029,13.3031,4.60096,2470.787,2023-11-05T07:14:33Z
2023-11-05T05:15:10Z,42.805,6.029,13.3049,4.60110,2470.787,2023-11-05T07:17:37Z
2023-11-05T05:18:13Z,42.805,6.029,13.3032,4.60107,2470.763,2023-11-05T07:20:40Z
2023-11-05T05:21:16Z,42.805,6.029,13.3048,4.60113,2470.763,2023-11-05T07:23:43Z
2023-11-05T05:24:19Z,42.805,6.029,13.3046,4.60128,2470.763,2023-11-05T07:26:46Z
2023-11-05T05:27:23Z,42.805,6.029,13.3047,4.60120,2470.763,2023-11-05T07:29:49Z
2023-11-05T05:30:26Z,42.805,6.029,13.3063,4.60129,2470.763,2023-11-05T07:32:52Z
2023-11-05T05:33:29Z,42.805,6.029,13.3034,4.60098,2470.81,2023-11-05T07:35:55Z
2023-11-05T05:36:32Z,42.805,6.029,13.3042,4.60114,2470.763,2023-11-05T07:38:58Z
2023-11-05T05:39:35Z,42.805,6.029,13.3043,4.60117,2470.773,2023-11-05T07:42:01Z
2023-11-05T05:42:38Z,42.805,6.029,13.3049,4.60127,2470.763,2023-11-05T07:45:04Z
2023-11-05T05:45:41Z,42.805,6.029,13.3039,4.60165,2470.8,2023-11-05T07:48:07Z
2023-11-05T05:48:44Z,42.805,6.029,13.3046,4.60115,2470.824,2023-11-05T07:51:10Z
2023-11-05T05:51:47Z,42.805,6.029,13.3046,4.60119,2470.763,2023-11-05T07:54:13Z
2023-11-05T05:54:50Z,42.805,6.029,13.3052,4.60149,2470.8,2023-11-05T07:57:17Z
2023-11-05T05:57:53Z,42.805,6.029,13.3059,4.60156,2470.763,2023-11-05T08:00:20Z
2023-11-05T06:00:56Z,42.805,6.029,13.3056,4.60113,2470.787,2023-11-05T08:03:23Z
2023-11-05T06:03:59Z,42.805,6.029,13.3045,4.60129,2470.777,2023-11-05T08:06:26Z
2023-11-05T06:07:03Z,42.805,6.029,13.3058,4.60157,2470.777,2023-11-05T08:09:29Z
2023-11-05T06:10:06Z,42.805,6.029,13.3068,4.60183,2470.8,2023-11-05T08:12:32Z
2023-11-05T06:13:09Z,42.805,6.029,13.3050,4.60170,2470.777,2023-11-05T08:15:35Z
2023-11-05T06:16:12Z,42.805,6.029,13.3048,4.60134,2470.763,2023-11-05T08:18:38Z
2023-11-05T06:19:15Z,42.805,6.029,13.3052,4.60153,2470.787,2023-11-05T08:21:41Z
2023-11-05T06:22:18Z,42.805,6.029,13.3054,4.60152,2470.754,2023-11-05T08:24:44Z
2023-11-05T06:25:21Z,42.805,6.029,13.3068,4.60123,2470.763,2023-11-05T08:27:47Z
2023-11-05T06:28:24Z,42.805,6.029,13.3054,4.60145,2470.777,2023-11-05T08:30:50Z
2023-11-05T06:31:27Z,42.805,6.029,13.3070,4.60142,2470.787,2023-11-05T08:33:54Z
2023-11-05T06:34:30Z,42.805,6.029,13.3054,4.60128,2470.754,2023-11-05T08:36:57Z
2023-11-05T06:37:33Z,42.805,6.029,13.3043,4.60161,2470.81,2023-11-05T08:40:00Z
2023-11-05T06:40:36Z,42.805,6.029,13.3054,4.60119,2470.824,2023-11-05T08:43:03Z
2023-11-05T06:43:40Z,42.805,6.029,13.3064,4.60102,2470.74,2023-11-05T08:46:06Z
2023-11-05T06:46:43Z,42.805,6.029,13.3043,4.60120,2470.777,2023-11-05T08:49:09Z
2023-11-05T06:49:46Z,42.805,6.029,13.3046,4.60119,2470.787,2023-11-05T08:52:12Z
2023-11-05T06:52:49Z,42.805,6.029,13.3043,4.60114,2470.763,2023-11-05T08:55:15Z
2023-11-05T06:55:52Z,42.805,6.029,13.3047,4.60106,2470.8,2023-11-05T08:58:18Z
2023-11-05T06:58:55Z,42.805,6.029,13.3031,4.60099,2470.74,2023-11-05T09:01:21Z
2023-11-05T07:01:58Z,42.805,6.029,13.3031,4.60116,2470.773,2023-11-05T09:04:24Z
2023-11-05T07:05:01Z,42.805,6.029,13.3030,4.60129,2470.787,2023-11-05T09:07:27Z
2023-11-05T07:08:04Z,42.805,6.029,13.3033,4.60112,2470.787,2023-11-05T09:10:30Z
2023-11-05T07:11:07Z,42.805,6.029,13.3036,4.60113,2470.787,2023-11-05T09:13:34Z
2023-11-05T07:14:10Z,42.805,6.029,13.3054,4.60119,2470.763,2023-11-05T09:16:37Z
2023-11-05T07:17:13Z,42.805,6.029,13.3041,4.60119,2470.787,2023-11-05T09:19:40Z
2023-11-05T07:20:16Z,42.805,6.029,13.3042,4.60138,2470.787,2023-11-05T09:22:43Z
2023-11-05T07:23:20Z,42.805,6.029,13.3043,4.60130,2470.787,2023-11-05T09:25:46Z
2023-11-05T07:26:23Z,42.805,6.029,13.3031,4.60105,2470.763,2023-11-05T09:28:49Z
2023-11-05T07:29:26Z,42.805,6.029,13.3042,4.60102,2470.8,2023-11-05T09:31:52Z
2023-11-05T07:32:29Z,42.805,6.029,13.3034,4.60106,2470.787,2023-11-05T09:34:55Z
2023-11-05T07:35:32Z,42.805,6.029,13.3029,4.60109,2470.763,2023-11-05T09:37:58Z
2023-11-05T07:38:35Z,42.805,6.029,13.3062,4.60125,2470.787,2023-11-05T09:41:01Z
2023-11-05T07:41:38Z,42.805,6.029,13.3055,4.60132,2470.763,2023-11-05T09:44:04Z
2023-11-05T07:44:41Z,42.805,6.029,13.3051,4.60169,2470.81,2023-11-05T09:47:07Z
2023-11-05T07:47:44Z,42.805,6.029,13.3043,4.60173,2470.777,2023-11-05T09:50:10Z
2023-11-05T07:50:47Z,42.805,6.029,13.3054,4.60152,2470.787,2023-11-05T09:53:14Z
2023-11-05T07:53:50Z,42.805,6.029,13.3065,4.60157,2470.824,2023-11-05T09:56:17Z
2023-11-05T07:56:53Z,42.805,6.029,13.3050,4.60156,2470.777,2023-11-05T09:59:20Z
2023-11-05T07:59:56Z,42.805,6.029,13.3056,4.60166,2470.81,2023-11-05T10:02:23Z
2023-11-05T08:03:00Z,42.805,6.029,13.3045,4.60168,2470.763,2023-11-05T10:05:26Z
2023-11-05T08:06:03Z,42.805,6.029,13.3038,4.60142,2470.81,2023-11-05T10:08:29Z
2023-11-05T08:09:06Z,42.805,6.029,13.3040,4.60129,2470.81,2023-11-05T10:11:32Z
2023-11-05T08:12:09Z,42.805,6.029,13.3060,4.60151,2470.81,2023-11-05T10:14:35Z
2023-11-05T08:15:12Z,42.805,6.029,13.3063,4.60157,2470.787,2023-11-05T10:17:38Z
2023-11-05T08:18:15Z,42.805,6.029,13.3045,4.60160,2470.81,2023-11-05T10:20:41Z
2023-11-05T08:21:18Z,42.805,6.029,13.3043,4.60152,2470.824,2023-11-05T10:23:44Z
2023-11-05T08:24:21Z,42.805,6.029,13.3042,4.60158,2470.74,2023-11-05T10:26:47Z
2023-11-05T08:27:24Z,42.805,6.029,13.3037,4.60157,2470.787,2023-11-05T10:29:51Z
2023-11-05T08:30:27Z,42.805,6.029,13.3047,4.60155,2470.787,2023-11-05T10:32:54Z
2023-11-05T08:33:30Z,42.805,6.029,13.3056,4.60173,2470.81,2023-11-05T10:35:57Z
2023-11-05T08:36:33Z,42.805,6.029,13.3046,4.60157,2470.81,2023-11-05T10:39:00Z
2023-11-05T08:39:37Z,42.805,6.029,13.3054,4.60162,2470.787,2023-11-05T10:42:03Z
2023-11-05T08:42:40Z,42.805,6.029,13.3046,4.60150,2470.787,2023-11-05T10:45:06Z
2023-11-05T08:45:43Z,42.805,6.029,13.3058,4.60150,2470.871,2023-11-05T10:48:09Z
2023-11-05T08:48:46Z,42.805,6.029,13.3063,4.60150,2470.824,2023-11-05T10:51:12Z
2023-11-05T08:51:49Z,42.805,6.029,13.3075,4.60150,2470.81,2023-11-05T10:54:15Z
2023-11-05T08:54:52Z,42.805,6.029,13.3063,4.60157,2470.824,2023-11-05T10:57:18Z
2023-11-05T08:57:55Z,42.805,6.029,13.3062,4.60154,2470.81,2023-11-05T11:00:21Z
2023-11-05T09:00:58Z,42.805,6.029,13.3061,4.60174,2470.847,2023-11-05T11:03:24Z
2023-11-05T09:04:01Z,42.805,6.029,13.3062,4.60170,2470.871,2023-11-05T11:06:28Z
2023-11-05T09:07:04Z,42.805,6.029,13.3056,4.60182,2470.857,2023-11-05T11:09:31Z
2023-11-05T09:10:07Z,42.805,6.029,13.3057,4.60183,2470.833,2023-11-05T11:12:34Z
2023-11-05T09:13:10Z,42.805,6.029,13.3051,4.60213,2470.833,2023-11-05T11:15:37Z
2023-11-05T09:16:14Z,42.805,6.029,13.3076,4.60149,2470.833,2023-11-05T11:18:40Z
2023-11-05T09:19:17Z,42.805,6.029,13.3071,4.60123,2470.857,2023-11-05T11:21:43Z
2023-11-05T09:22:20Z,42.805,6.029,13.3063,4.60129,2470.833,2023-11-05T11:24:46Z
2023-11-05T09:25:23Z,42.805,6.029,13.3065,4.60140,2470.857,2023-11-05T11:27:49Z
2023-11-05T09:28:26Z,42.805,6.029,13.3082,4.60150,2470.894,2023-11-05T11:30:52Z
2023-11-05T09:31:28Z,42.805,6.029,13.3051,4.60112,2470.871,2023-11-05T11:33:54Z
2023-11-05T09:34:31Z,42.805,6.029,13.3029,4.60107,2470.857,2023-11-05T11:36:57Z
2023-11-05T09:37:34Z,42.805,6.029,13.3032,4.60125,2470.833,2023-11-05T11:40:00Z
2023-11-05T09:40:37Z,42.805,6.029,13.3059,4.60151,2470.833,2023-11-05T11:43:03Z
2023-11-05T09:43:40Z,42.805,6.029,13.3059,4.60127,2470.88,2023-11-05T11:46:06Z
2023-11-05T09:46:43Z,42.805,6.029,13.3063,4.60137,2470.833,2023-11-05T11:49:09Z
2023-11-05T09:49:46Z,42.805,6.029,13.3063,4.60164,2470.894,2023-11-05T11:52:13Z
2023-11-05T09:52:49Z,42.805,6.029,13.3074,4.60118,2470.857,2023-11-05T11:55:16Z
2023-11-05T09:55:52Z,42.805,6.029,13.3056,4.60114,2470.871,2023-11-05T11:58:19Z
2023-11-05T09:58:55Z,42.805,6.029,13.3029,4.60105,2470.917,2023-11-05T12:01:22Z
2023-11-05T10:01:59Z,42.805,6.029,13.3028,4.60113,2470.88,2023-11-05T12:04:25Z
2023-11-05T10:05:02Z,42.805,6.029,13.3032,4.60099,2470.857,2023-11-05T12:07:28Z
2023-11-05T10:08:05Z,42.805,6.029,13.3032,4.60105,2470.88,2023-11-05T12:10:31Z
2023-11-05T10:11:08Z,42.805,6.029,13.3044,4.60128,2470.904,2023-11-05T12:13:34Z
2023-11-05T10:14:11Z,42.805,6.029,13.3059,4.60135,2470.88,2023-11-05T12:16:37Z
2023-11-05T10:17:14Z,42.805,6.029,13.3050,4.60138,2470.857,2023-11-05T12:19:40Z
2023-11-05T10:20:17Z,42.805,6.029,13.3062,4.60140,2470.871,2023-11-05T12:22:43Z
2023-11-05T10:23:20Z,42.805,6.029,13.3029,4.60108,2470.894,2023-11-05T12:25:46Z
2023-11-05T10:26:23Z,42.805,6.029,13.3045,4.60119,2470.857,2023-11-05T12:28:50Z
2023-11-05T10:29:26Z,42.805,6.029,13.3057,4.60110,2470.871,2023-11-05T12:31:53Z
2023-11-05T10:32:29Z,42.805,6.029,13.3061,4.60142,2470.917,2023-11-05T12:34:56Z
2023-11-05T10:35:32Z,42.805,6.029,13.3072,4.60127,2470.88,2023-11-05T12:37:59Z
2023-11-05T10:38:36Z,42.805,6.029,13.3029,4.60115,2470.904,2023-11-05T12:41:02Z
2023-11-05T10:41:39Z,42.805,6.029,13.3046,4.60129,2470.88,2023-11-05T12:44:05Z
2023-11-05T10:44:42Z,42.805,6.029,13.3067,4.60122,2470.857,2023-11-05T12:47:08Z
2023-11-05T10:47:45Z,42.805,6.029,13.3061,4.60162,2470.857,2023-11-05T12:50:11Z
2023-11-05T10:50:48Z,42.805,6.029,13.3029,4.60114,2470.857,2023-11-05T12:53:14Z
2023-11-05T10:53:51Z,42.805,6.029,13.3107,4.60119,2470.88,2023-11-05T12:56:17Z
2023-11-05T10:56:54Z,42.805,6.029,13.3030,4.60120,2470.847,2023-11-05T12:59:20Z
2023-11-05T10:59:57Z,42.805,6.029,13.3025,4.60102,2470.88,2023-11-05T13:02:23Z
2023-11-05T11:03:00Z,42.805,6.029,13.3029,4.60104,2470.871,2023-11-05T13:05:27Z
2023-11-05T11:06:03Z,42.805,6.029,13.3034,4.60106,2470.88,2023-11-05T13:08:30Z
2023-11-05T11:09:06Z,42.805,6.029,13.3055,4.60117,2470.904,2023-11-05T13:11:33Z
2023-11-05T11:12:09Z,42.805,6.029,13.3047,4.60117,2470.88,2023-11-05T13:14:36Z
2023-11-05T11:15:13Z,42.805,6.029,13.3046,4.60112,2470.857,2023-11-05T13:17:39Z
2023-11-05T11:18:16Z,42.805,6.029,13.3028,4.60104,2470.894,2023-11-05T13:20:42Z
2023-11-05T11:21:19Z,42.805,6.029,13.3029,4.60107,2470.88,2023-11-05T13:23:45Z
2023-11-05T11:24:22Z,42.805,6.029,13.3029,4.60102,2470.904,2023-11-05T13:26:48Z
2023-11-05T11:27:25Z,42.805,6.029,13.3026,4.60099,2470.917,2023-11-05T13:29:51Z
2023-11-05T11:30:27Z,42.805,6.029,13.3026,4.60098,2470.894,2023-11-05T13:32:53Z
2023-11-05T11:33:30Z,42.805,6.029,13.3026,4.60103,2470.904,2023-11-05T13:35:56Z
2023-11-05T11:36:33Z,42.805,6.029,13.3029,4.60109,2470.88,2023-11-05T13:38:59Z
2023-11-05T11:39:36Z,42.805,6.029,13.3031,4.60103,2470.88,2023-11-05T13:42:02Z
2023-11-05T11:42:39Z,42.805,6.029,13.3031,4.60104,2470.88,2023-11-05T13:45:06Z
2023-11-05T11:45:42Z,42.805,6.029,13.3024,4.60111,2470.904,2023-11-05T13:48:09Z
2023-11-05T11:48:45Z,42.805,6.029,13.3028,4.60104,2470.904,2023-11-05T13:51:12Z
2023-11-05T11:51:48Z,42.805,6.029,13.3028,4.60107,2470.88,2023-11-05T13:54:15Z
2023-11-05T11:54:52Z,42.805,6.029,13.3031,4.60107,2470.894,2023-11-05T13:57:18Z
2023-11-05T11:57:55Z,42.805,6.029,13.3026,4.60110,2470.904,2023-11-05T14:00:21Z
2023-11-05T12:00:58Z,42.805,6.029,13.3028,4.60109,2470.88,2023-11-05T14:03:24Z
2023-11-05T12:04:01Z,42.805,6.029,13.3028,4.60107,2470.88,2023-11-05T14:06:27Z
2023-11-05T12:07:04Z,42.805,6.029,13.3026,4.60106,2470.88,2023-11-05T14:09:30Z
2023-11-05T12:10:07Z,42.805,6.029,13.3024,4.60104,2470.88,2023-11-05T14:12:33Z
2023-11-05T12:13:10Z,42.805,6.029,13.3029,4.60108,2470.904,2023-11-05T14:15:36Z
2023-11-05T12:16:13Z,42.805,6.029,13.3030,4.60103,2470.88,2023-11-05T14:18:39Z
2023-11-05T12:19:16Z,42.805,6.029,13.3031,4.60108,2470.917,2023-11-05T14:21:43Z
2023-11-05T12:22:19Z,42.805,6.029,13.3029,4.60106,2470.904,2023-11-05T14:24:46Z
2023-11-05T12:25:22Z,42.805,6.029,13.3027,4.60109,2470.917,2023-11-05T14:27:49Z
2023-11-05T12:28:25Z,42.805,6.029,13.3031,4.60109,2470.88,2023-11-05T14:30:52Z
2023-11-05T12:31:29Z,42.805,6.029,13.3026,4.60106,2470.917,2023-11-05T14:33:55Z
2023-11-05T12:34:32Z,42.805,6.029,13.3030,4.60110,2470.917,2023-11-05T14:36:58Z
2023-11-05T12:37:35Z,42.805,6.029,13.3030,4.60106,2470.88,2023-11-05T14:40:01Z
2023-11-05T12:40:38Z,42.805,6.029,13.3028,4.60111,2470.927,2023-11-05T14:43:04Z
2023-11-05T12:43:41Z,42.805,6.029,13.3029,4.60104,2470.917,2023-11-05T14:46:07Z
2023-11-05T12:46:44Z,42.805,6.029,13.3029,4.60106,2470.917,2023-11-05T14:49:10Z
2023-11-05T12:49:47Z,42.805,6.029,13.3029,4.60113,2470.904,2023-11-05T14:52:13Z
2023-11-05T12:52:50Z,42.805,6.029,13.3031,4.60110,2470.894,2023-11-05T14:55:16Z
2023-11-05T12:55:53Z,42.805,6.029,13.3028,4.60102,2470.917,2023-11-05T14:58:20Z
2023-11-05T12:58:56Z,42.805,6.029,13.3026,4.60108,2470.894,2023-11-05T15:01:23Z
2023-11-05T13:01:59Z,42.805,6.029,13.3027,4.60108,2470.904,2023-11-05T15:04:26Z
2023-11-05T13:05:02Z,42.805,6.029,13.3026,4.60104,2470.871,2023-11-05T15:07:29Z
2023-11-05T13:08:06Z,42.805,6.029,13.3027,4.60109,2470.88,2023-11-05T15:10:32Z
2023-11-05T13:11:09Z,42.805,6.029,13.3030,4.60106,2470.917,2023-11-05T15:13:35Z
2023-11-05T13:14:12Z,42.805,6.029,13.3028,4.60102,2470.88,2023-11-05T15:16:38Z
2023-11-05T13:17:15Z,42.805,6.029,13.3029,4.60102,2470.871,2023-11-05T15:19:41Z
2023-11-05T13:20:18Z,42.805,6.029,13.3031,4.60101,2470.88,2023-11-05T15:22:44Z
2023-11-05T13:23:21Z,42.805,6.029,13.3027,4.60104,2470.88,2023-11-05T15:25:47Z
2023-11-05T13:26:24Z,42.805,6.029,13.3025,4.60101,2470.88,2023-11-05T15:28:50Z
2023-11-05T13:29:27Z,42.805,6.029,13.3026,4.60101,2470.904,2023-11-05T15:31:53Z
2023-11-05T13:32:30Z,42.805,6.029,13.3028,4.60104,2470.88,2023-11-05T15:34:57Z
2023-11-05T13:35:33Z,42.805,6.029,13.3029,4.60104,2470.904,2023-11-05T15:38:00Z
2023-11-05T13:38:36Z,42.805,6.029,13.3027,4.60105,2470.894,2023-11-05T15:41:03Z
2023-11-05T13:41:40Z,42.805,6.029,13.3029,4.60103,2470.927,2023-11-05T15:44:06Z
2023-11-05T13:44:43Z,42.805,6.029,13.3029,4.60101,2470.904,2023-11-05T15:47:09Z
2023-11-05T13:47:46Z,42.805,6.029,13.3029,4.60102,2470.904,2023-11-05T15:50:12Z
2023-11-05T13:50:49Z,42.805,6.029,13.3026,4.60100,2470.88,2023-11-05T15:53:15Z
2023-11-05T13:53:52Z,42.805,6.029,13.3029,4.60099,2470.904,2023-11-05T15:56:18Z
2023-11-05T13:56:55Z,42.805,6.029,13.3030,4.60099,2470.894,2023-11-05T15:59:21Z
2023-11-05T13:59:58Z,42.805,6.029,13.3025,4.60100,2470.88,2023-11-05T16:02:24Z
2023-11-05T14:03:01Z,42.805,6.029,13.3029,4.60105,2470.88,2023-11-05T16:05:27Z
2023-11-05T14:06:04Z,42.805,6.029,13.3027,4.60101,2470.894,2023-11-05T16:08:30Z
2023-11-05T14:09:07Z,42.805,6.029,13.3026,4.60100,2470.917,2023-11-05T16:11:34Z
2023-11-05T14:12:10Z,42.805,6.029,13.3031,4.60099,2470.894,2023-11-05T16:14:37Z
2023-11-05T14:15:13Z,42.805,6.029,13.3029,4.60102,2470.894,2023-11-05T16:17:40Z
2023-11-05T14:18:16Z,42.805,6.029,13.3028,4.60101,2470.904,2023-11-05T16:20:43Z
2023-11-05T14:21:20Z,42.805,6.029,13.3029,4.60099,2470.871,2023-11-05T16:23:46Z
2023-11-05T14:24:23Z,42.805,6.029,13.3025,4.60099,2470.88,2023-11-05T16:26:49Z
2023-11-05T14:27:26Z,42.805,6.029,13.3029,4.60099,2470.88,2023-11-05T16:29:52Z
2023-11-05T14:30:29Z,42.805,6.029,13.3026,4.60099,2470.894,2023-11-05T16:32:55Z
2023-11-05T14:33:32Z,42.805,6.029,13.3028,4.60101,2470.857,2023-11-05T16:35:58Z
2023-11-05T14:36:35Z,42.805,6.029,13.3028,4.60100,2470.88,2023-11-05T16:39:01Z
2023-11-05T14:39:38Z,42.805,6.029,13.3028,4.60099,2470.857,2023-11-05T16:42:04Z
2023-11-05T14:42:41Z,42.805,6.029,13.3027,4.60100,2470.88,2023-11-05T16:45:08Z
2023-11-05T14:45:44Z,42.805,6.029,13.3029,4.60104,2470.857,2023-11-05T16:48:11Z
2023-11-05T14:48:47Z,42.805,6.029,13.3026,4.60101,2470.904,2023-11-05T16:51:14Z
2023-11-05T14:51:50Z,42.805,6.029,13.3025,4.60101,2470.894,2023-11-05T16:54:17Z
2023-11-05T14:54:53Z,42.805,6.029,13.3030,4.60102,2470.857,2023-11-05T16:57:20Z
2023-11-05T14:57:57Z,42.805,6.029,13.3027,4.60102,2470.88,2023-11-05T17:00:23Z
2023-11-05T15:01:00Z,42.805,6.029,13.3029,4.60105,2470.88,2023-11-05T17:03:26Z